�������l�o���
Date,Time,MP-1(��Sv/h),MP-2(��Sv/h),MP-3(��Sv/h),MP-4(��Sv/h),MP-5(��Sv/h),MP-6(��Sv/h),MP-7(��Sv/h),MP-8(��Sv/h),����,����(m/s),���J
2018/09/20,00:00,0.806,1.218,0.855,1.507,1.107,0.469,0.819,0.775,���k��,3.1,��
2018/09/20,00:10,0.805,1.215,0.855,1.506,1.107,0.470,0.819,0.775,���k��,3.6,��
2018/09/20,00:20,0.808,1.215,0.854,1.507,1.109,0.469,0.820,0.776,���k��,3.4,��
2018/09/20,00:30,0.807,1.216,0.856,1.505,1.107,0.470,0.820,0.774,��,3.3,��
2018/09/20,00:40,0.806,1.214,0.855,1.506,1.108,0.468,0.821,0.776,���k��,3.2,��
2018/09/20,00:50,0.808,1.215,0.856,1.507,1.107,0.470,0.820,0.776,���k��,2.3,��
2018/09/20,01:00,0.808,1.215,0.855,1.505,1.107,0.469,0.820,0.778,��,2.0,��
2018/09/20,01:10,0.805,1.214,0.855,1.504,1.109,0.468,0.819,0.776,���k��,1.7,��
2018/09/20,01:20,0.806,1.216,0.855,1.506,1.109,0.469,0.819,0.776,���k��,1.7,��
2018/09/20,01:30,0.806,1.215,0.857,1.507,1.107,0.468,0.821,0.777,��,1.7,��
2018/09/20,01:40,0.807,1.213,0.855,1.505,1.106,0.468,0.820,0.776,���k��,1.5,��
2018/09/20,01:50,0.806,1.215,0.855,1.507,1.109,0.469,0.820,0.775,��,1.4,��
2018/09/20,02:00,0.806,1.216,0.855,1.505,1.108,0.469,0.819,0.777,��,1.7,��
2018/09/20,02:10,0.806,1.214,0.854,1.506,1.105,0.469,0.821,0.776,��,2.0,��
2018/09/20,02:20,0.809,1.214,0.853,1.504,1.108,0.468,0.818,0.776,���쐼,1.2,��
2018/09/20,02:30,0.806,1.213,0.856,1.505,1.107,0.468,0.818,0.777,��쐼,1.7,��
2018/09/20,02:40,0.807,1.215,0.855,1.505,1.106,0.468,0.819,0.777,�쐼,1.4,��
2018/09/20,02:50,0.807,1.212,0.856,1.506,1.109,0.469,0.821,0.776,���쐼,0.9,��
2018/09/20,03:00,0.805,1.216,0.855,1.508,1.106,0.468,0.820,0.777,���쐼,0.8,��
2018/09/20,03:10,0.807,1.214,0.854,1.506,1.107,0.467,0.821,0.776,��,0.6,��
2018/09/20,03:20,0.806,1.211,0.854,1.503,1.108,0.469,0.818,0.777,��,1.5,��
2018/09/20,03:30,0.806,1.216,0.854,1.505,1.106,0.468,0.821,0.777,��쐼,2.0,��
2018/09/20,03:40,0.806,1.213,0.853,1.505,1.108,0.468,0.821,0.775,��,2.3,��
2018/09/20,03:50,0.807,1.215,0.854,1.502,1.105,0.468,0.819,0.775,�쐼,1.7,��
2018/09/20,04:00,0.806,1.213,0.855,1.505,1.105,0.469,0.820,0.774,��쐼,2.2,��
2018/09/20,04:10,0.806,1.214,0.855,1.505,1.107,0.468,0.820,0.777,��쓌,2.0,��
2018/09/20,04:20,0.806,1.215,0.854,1.505,1.107,0.467,0.818,0.776,�쓌,1.4,��
2018/09/20,04:30,0.806,1.214,0.853,1.504,1.107,0.468,0.819,0.776,��쓌,0.9,��
2018/09/20,04:40,0.807,1.216,0.852,1.505,1.106,0.468,0.820,0.777,��,0.6,��
2018/09/20,04:50,0.806,1.214,0.853,1.503,1.107,0.468,0.820,0.777,��쐼,0.8,��
2018/09/20,05:00,0.804,1.212,0.854,1.505,1.107,0.470,0.820,0.776,��,0.8,��
2018/09/20,05:10,0.806,1.213,0.854,1.505,1.106,0.466,0.820,0.776,-,CALM,��
2018/09/20,05:20,0.803,1.215,0.854,1.506,1.107,0.467,0.820,0.775,-,CALM,��
2018/09/20,05:30,0.804,1.215,0.855,1.507,1.107,0.468,0.819,0.777,���쓌,0.8,��
2018/09/20,05:40,0.806,1.213,0.852,1.503,1.110,0.468,0.819,0.775,���쓌,0.8,��
2018/09/20,05:50,0.806,1.214,0.854,1.508,1.105,0.469,0.819,0.775,-,CALM,��
2018/09/20,06:00,0.806,1.212,0.855,1.503,1.105,0.467,0.819,0.776,-,CALM,��
2018/09/20,06:10,0.807,1.214,0.854,1.505,1.106,0.468,0.819,0.776,�k��,0.6,��
2018/09/20,06:20,0.807,1.216,0.854,1.506,1.105,0.468,0.819,0.776,�k,1.2,��
2018/09/20,06:30,0.807,1.216,0.854,1.506,1.105,0.468,0.819,0.775,�k�k��,1.7,��
2018/09/20,06:40,0.807,1.213,0.855,1.504,1.106,0.467,0.821,0.776,�k�k��,2.0,��
2018/09/20,06:50,0.806,1.213,0.854,1.506,1.105,0.467,0.819,0.778,�k�k��,3.1,��
2018/09/20,07:00,0.806,1.214,0.853,1.507,1.107,0.469,0.820,0.777,�k,2.3,��
2018/09/20,07:10,0.809,1.214,0.855,1.507,1.106,0.469,0.819,0.776,�k�k��,2.6,��
2018/09/20,07:20,0.806,1.215,0.855,1.505,1.108,0.469,0.818,0.776,�k�k��,5.5,��
2018/09/20,07:30,0.807,1.215,0.855,1.507,1.106,0.468,0.821,0.776,�k�k��,3.9,��
2018/09/20,07:40,0.808,1.215,0.854,1.506,1.107,0.469,0.821,0.779,�k�k��,2.9,��
2018/09/20,07:50,0.809,1.214,0.856,1.506,1.106,0.467,0.819,0.776,�k�k��,3.9,��
2018/09/20,08:00,0.806,1.215,0.856,1.507,1.106,0.468,0.818,0.777,�k�k��,4.5,��
2018/09/20,08:10,0.807,1.216,0.856,1.505,1.106,0.468,0.819,0.778,�k,3.3,��
2018/09/20,08:20,0.808,1.215,0.857,1.506,1.107,0.468,0.819,0.777,�k,2.5,��
2018/09/20,08:30,0.809,1.216,0.857,1.507,1.110,0.468,0.817,0.775,�k,3.0,��
2018/09/20,08:40,0.806,1.215,0.856,1.507,1.108,0.468,0.820,0.775,�k�k��,3.4,��
2018/09/20,08:50,0.808,1.214,0.856,1.507,1.110,0.467,0.818,0.775,�k,3.5,��
2018/09/20,09:00,0.807,1.216,0.857,1.507,1.108,0.467,0.822,0.777,�k,3.1,��
2018/09/20,09:10,0.806,1.215,0.857,1.511,1.109,0.467,0.819,0.774,�k�k��,2.3,��
2018/09/20,09:20,0.807,1.211,0.855,1.509,1.109,0.467,0.820,0.776,�k�k��,2.3,��
2018/09/20,09:30,0.808,1.215,0.855,1.509,1.109,0.466,0.818,0.773,�k�k��,2.0,��
2018/09/20,09:40,0.804,1.211,0.855,1.509,1.105,0.465,0.820,0.775,�k�k��,1.1,��
2018/09/20,09:50,0.804,1.209,0.854,1.509,1.105,0.467,0.820,0.775,�k�k��,3.4,��
2018/09/20,10:00,0.805,1.211,0.852,1.509,1.105,0.464,0.819,0.774,�k,3.3,��
2018/09/20,10:10,0.806,1.210,0.850,1.507,1.105,0.467,0.819,0.775,�k,2.6,��
2018/09/20,10:20,0.804,1.210,0.844,1.507,1.107,0.466,0.818,0.774,�k,2.8,��
2018/09/20,10:30,0.804,1.211,0.846,1.509,1.108,0.465,0.819,0.776,�k��,2.8,��
2018/09/20,10:40,0.805,1.211,0.849,1.508,1.107,0.466,0.820,0.773,�k�k��,3.0,��
2018/09/20,10:50,0.804,1.212,0.854,1.510,1.107,0.466,0.819,0.775,�k�k��,3.1,��
2018/09/20,11:00,0.804,1.211,0.852,1.506,1.107,0.468,0.818,0.774,�k,3.5,��
2018/09/20,11:10,0.806,1.213,0.852,1.508,1.108,0.466,0.818,0.774,�k�k��,2.8,��
2018/09/20,11:20,0.805,1.212,0.854,1.505,1.105,0.466,0.817,0.774,�k,1.5,��
2018/09/20,11:30,0.805,1.212,0.853,1.507,1.107,0.467,0.818,0.774,�k�k��,1.5,��
2018/09/20,11:40,0.804,1.212,0.854,1.508,1.106,0.466,0.818,0.775,��,1.7,��
2018/09/20,11:50,0.806,1.213,0.853,1.510,1.107,0.466,0.818,0.775,-,CALM,��
2018/09/20,12:00,0.803,1.212,0.853,1.506,1.106,0.466,0.818,0.774,�k��,1.5,��
2018/09/20,12:10,0.803,1.214,0.854,1.507,1.107,0.466,0.819,0.775,�k�k��,2.2,��
2018/09/20,12:20,0.805,1.215,0.853,1.509,1.109,0.467,0.821,0.775,�k�k��,2.3,��
2018/09/20,12:30,0.806,1.214,0.854,1.508,1.109,0.467,0.820,0.774,�k�k��,1.7,��
2018/09/20,12:40,0.806,1.215,0.853,1.509,1.107,0.467,0.819,0.775,�k��,1.5,��
2018/09/20,12:50,0.806,1.212,0.851,1.508,1.107,0.465,0.821,0.774,�k�k��,1.5,��
2018/09/20,13:00,0.806,1.212,0.853,1.506,1.107,0.467,0.821,0.774,�k�k��,1.9,��
2018/09/20,13:10,0.805,1.216,0.853,1.504,1.108,0.467,0.820,0.775,�k��,1.2,��
2018/09/20,13:20,0.807,1.213,0.851,1.508,1.108,0.466,0.820,0.774,�k�k��,0.9,��
2018/09/20,13:30,0.807,1.212,0.851,1.505,1.108,0.467,0.821,0.775,�k�k��,1.1,��
2018/09/20,13:40,0.806,1.214,0.853,1.505,1.110,0.469,0.822,0.774,-,CALM,��
2018/09/20,13:50,0.808,1.215,0.851,1.512,1.108,0.467,0.820,0.774,-,CALM,��
2018/09/20,14:00,0.809,1.213,0.855,1.510,1.109,0.468,0.821,0.773,�k�k��,0.8,��
2018/09/20,14:10,0.806,1.216,0.851,1.509,1.108,0.468,0.819,0.775,��,1.2,��
2018/09/20,14:20,0.807,1.212,0.855,1.507,1.109,0.467,0.820,0.774,��,1.5,��
2018/09/20,14:30,0.808,1.213,0.853,1.511,1.107,0.466,0.820,0.775,��,1.7,��
2018/09/20,14:40,0.803,1.214,0.855,1.510,1.109,0.467,0.818,0.775,��,2.9,��
2018/09/20,14:50,0.806,1.213,0.855,1.508,1.110,0.465,0.820,0.774,��,4.3,��
2018/09/20,15:00,0.805,1.215,0.856,1.509,1.109,0.467,0.819,0.774,��쓌,3.9,�L
2018/09/20,15:10,0.809,1.215,0.857,1.507,1.109,0.468,0.820,0.776,��,3.4,�L
2018/09/20,15:20,0.809,1.216,0.854,1.512,1.109,0.467,0.819,0.775,��,5.5,�L
2018/09/20,15:30,0.811,1.217,0.857,1.509,1.110,0.468,0.821,0.774,��,7.7,�L
2018/09/20,15:40,0.811,1.217,0.857,1.510,1.098,0.469,0.819,0.774,��,8.6,�L
2018/09/20,15:50,0.809,1.214,0.857,1.507,1.105,0.468,0.820,0.776,��,10.3,�L
2018/09/20,16:00,0.810,1.219,0.857,1.512,1.109,0.469,0.819,0.777,��,10.5,�L
2018/09/20,16:10,0.807,1.217,0.857,1.508,1.110,0.469,0.820,0.777,��,13.8,�L
2018/09/20,16:20,0.806,1.214,0.859,1.508,1.109,0.470,0.820,0.775,��,13.6,�L
2018/09/20,16:30,0.807,1.210,0.855,1.504,1.107,0.469,0.817,0.775,��쐼,11.6,�L
2018/09/20,16:40,0.807,1.208,0.851,1.506,1.102,0.468,0.818,0.772,��,11.8,�L
2018/09/20,16:50,0.805,1.208,0.851,1.506,1.101,0.469,0.816,0.773,��쐼,9.9,�L
2018/09/20,17:00,0.804,1.204,0.853,1.503,1.097,0.467,0.815,0.771,��쐼,8.3,�L
2018/09/20,17:10,0.804,1.197,0.853,1.499,1.093,0.468,0.813,0.769,��쐼,8.0,�L
2018/09/20,17:20,0.802,1.198,0.849,1.498,1.090,0.469,0.812,0.769,��쐼,8.7,�L
2018/09/20,17:30,0.799,1.196,0.852,1.495,1.089,0.466,0.812,0.769,��,9.8,�L
2018/09/20,17:40,0.800,1.193,0.849,1.495,1.085,0.468,0.813,0.768,��,10.9,�L
2018/09/20,17:50,0.798,1.191,0.850,1.492,1.084,0.468,0.812,0.768,��,11.3,�L
2018/09/20,18:00,0.798,1.187,0.848,1.491,1.085,0.467,0.811,0.767,��쐼,10.6,�L
2018/09/20,18:10,0.798,1.187,0.849,1.488,1.080,0.467,0.810,0.766,��쐼,8.3,�L
2018/09/20,18:20,0.796,1.185,0.848,1.487,1.078,0.465,0.810,0.766,��쐼,6.9,�L
2018/09/20,18:30,0.794,1.183,0.847,1.486,1.079,0.467,0.809,0.768,�쐼,5.8,�L
2018/09/20,18:40,0.794,1.178,0.846,1.483,1.074,0.465,0.807,0.766,�쐼,5.5,�L
2018/09/20,18:50,0.791,1.177,0.843,1.482,1.077,0.465,0.808,0.765,�쐼,4.5,�L
2018/09/20,19:00,0.791,1.175,0.842,1.479,1.073,0.469,0.804,0.766,�쐼,3.9,�L
2018/09/20,19:10,0.789,1.176,0.841,1.477,1.073,0.466,0.806,0.766,�쐼,5.3,�L
2018/09/20,19:20,0.791,1.176,0.841,1.473,1.072,0.466,0.806,0.764,��쐼,4.8,�L
2018/09/20,19:30,0.791,1.175,0.838,1.473,1.070,0.466,0.806,0.769,�쐼,6.1,�L
2018/09/20,19:40,0.791,1.176,0.841,1.476,1.071,0.466,0.806,0.766,�쐼,6.3,�L
2018/09/20,19:50,0.789,1.176,0.841,1.475,1.071,0.465,0.805,0.764,�쐼,5.5,�L
2018/09/20,20:00,0.791,1.175,0.840,1.476,1.073,0.466,0.807,0.764,��쐼,5.5,�L
2018/09/20,20:10,0.788,1.174,0.839,1.474,1.072,0.466,0.805,0.765,��쐼,5.1,�L
2018/09/20,20:20,0.789,1.176,0.838,1.475,1.071,0.465,0.805,0.766,��쐼,5.0,�L
2018/09/20,20:30,0.787,1.174,0.837,1.473,1.070,0.465,0.806,0.765,�쐼,4.5,�L
2018/09/20,20:40,0.790,1.173,0.837,1.474,1.070,0.464,0.805,0.765,�쐼,4.4,�L
2018/09/20,20:50,0.787,1.170,0.838,1.474,1.069,0.466,0.805,0.764,�쐼,5.0,�L
2018/09/20,21:00,0.787,1.172,0.836,1.471,1.066,0.466,0.804,0.765,��쐼,5.1,�L
2018/09/20,21:10,0.789,1.171,0.837,1.470,1.067,0.464,0.804,0.766,��쐼,5.6,�L
2018/09/20,21:20,0.788,1.170,0.836,1.467,1.064,0.465,0.803,0.764,��쐼,5.4,�L
2018/09/20,21:30,0.787,1.166,0.836,1.466,1.064,0.464,0.803,0.765,��쐼,5.0,�L
2018/09/20,21:40,0.786,1.166,0.836,1.463,1.065,0.466,0.803,0.764,��쐼,5.1,�L
2018/09/20,21:50,0.785,1.165,0.836,1.462,1.059,0.465,0.799,0.763,��쐼,4.8,�L
2018/09/20,22:00,0.784,1.161,0.835,1.459,1.061,0.465,0.801,0.761,�쐼,4.4,�L
2018/09/20,22:10,0.784,1.159,0.834,1.455,1.059,0.464,0.800,0.762,�쐼,3.6,�L
2018/09/20,22:20,0.786,1.156,0.833,1.453,1.059,0.464,0.799,0.761,�쐼,3.7,�L
2018/09/20,22:30,0.781,1.157,0.832,1.454,1.056,0.463,0.800,0.760,���쐼,3.3,�L
2018/09/20,22:40,0.783,1.156,0.831,1.453,1.053,0.464,0.799,0.760,���쐼,3.1,�L
2018/09/20,22:50,0.781,1.157,0.831,1.450,1.055,0.465,0.798,0.760,���쐼,3.2,�L
2018/09/20,23:00,0.780,1.151,0.829,1.451,1.053,0.463,0.799,0.758,�쐼,4.0,�L
2018/09/20,23:10,0.780,1.153,0.827,1.445,1.052,0.463,0.798,0.757,�쐼,3.4,�L
2018/09/20,23:20,0.778,1.150,0.827,1.444,1.050,0.463,0.798,0.758,��쐼,3.0,�L
2018/09/20,23:30,0.779,1.149,0.826,1.445,1.051,0.462,0.799,0.760,��쐼,3.7,�L
2018/09/20,23:40,0.778,1.150,0.825,1.444,1.050,0.461,0.797,0.760,��쐼,3.5,�L
2018/09/20,23:50,0.777,1.149,0.826,1.442,1.053,0.461,0.798,0.758,��쐼,2.3,�L
